GFSNGP_prec_radar_195.txt.gz
Reflectivity
-20 -20 -20 -20 -20 -20 -13 -14 9 -19 -19 -20 -20 -20 -19 -1 11 16 19 12 7 16 10 6 -3 6 -5 -20 -20 -20 -20 -20 -20 -20 -20 -20 -20 -20 -20 -20 -20 -20 -19 -18
-20 -20 -20 -20 -20 -20 -20 -20 -20 -20 -20 -20 -20 -20 -20 -19 -12 -10 -5 10 14 10 11 -0 -4 -16 -20 -20 -20 -20 -20 -20 -20 -20 -20 -19 -20 -20 -15 -20 -20 -19 -19 -20
11 9 14 8 -20 -20 -20 -20 -20 -20 -20 -20 -20 -20 -20 -20 -20 -20 -20 -20 -19 -7 1 -18 -20 -20 -20 -20 -20 -20 -20 -20 -20 -20 -20 -20 -20 -20 -20 -20 2 12 8 -3
17 13 17 -18 -20 -20 -20 -20 -20 -20 -20 -20 -20 -20 -20 -20 -20 -5 -2 7 -18 -20 -20 -20 -20 -20 -20 -20 -20 -20 -20 -20 -20 -20 -20 -20 -20 -20 -20 -20 4 4 17 26
18 7 -19 -20 -20 -20 -20 -20 -16 -20 -15 -20 -20 -20 -20 -20 -14 -20 -12 -5 -19 4 -19 -20 -20 -20 -20 -20 -20 -20 -20 -20 -20 -20 -20 -20 -20 -20 -20 -13 10 29 33 33
15 17 15 -20 -20 -16 13 14 -5 -20 -15 -20 -20 1 -20 -19 9 -20 -17 12 24 -5 -20 -20 -20 -20 -20 -20 -20 -20 -20 -20 -20 -20 -20 -20 -20 -19 -9 13 31 34 34 32
16 17 16 -20 -20 -20 -0 -20 -20 -20 -20 -13 -16 -20 -20 -20 -17 -20 -20 -20 -5 -14 -20 -20 -20 -20 -20 -20 -20 -20 -20 -20 -20 -20 -20 -10 22 26 34 38 36 35 30 29
9 16 9 -20 -20 -5 2 -1 -17 -17 -5 -3 4 -20 -20 -20 -20 -6 -20 -20 7 -1 -20 -20 -20 -20 -20 -20 -20 -20 -20 -19 -18 -11 26 35 32 32 35 35 32 22 20 19
5 -20 -20 -20 -16 -18 -20 -19 -20 -20 -5 -3 -10 -20 -20 -20 -20 10 -18 -20 -3 -18 -20 -20 -20 -20 -20 -20 -15 10 25 11 22 33 34 28 31 33 32 32 21 17 17 15
-0 -20 -20 -20 -13 -5 -11 -20 -15 -13 -20 -20 -20 -20 -20 -20 -3 -3 -20 -20 -20 -20 -20 -20 -20 -20 -18 -17 20 34 27 30 34 27 31 31 29 28 24 19 17 14 10 8
-20 -20 -6 -5 -19 -13 -13 -20 -16 -20 -20 -14 -11 -6 -10 -20 -15 -20 -20 -20 -20 -20 -20 -20 -20 -19 -4 -1 38 27 28 25 21 30 12 10 15 15 13 15 14 2 -2 -1
13 -20 -9 -20 -20 -20 -19 -20 -20 -20 -20 -20 -12 -18 3 -20 -6 -20 -20 -20 -20 -14 -20 -20 -20 -15 -4 4 1 -2 9 17 8 19 16 4 3 8 14 -8 -10 0 -20 3
-20 -20 -20 -20 -20 -20 -20 -20 -19 -4 -12 -0 -18 2 -18 -20 -20 -20 -20 -20 -20 -20 -20 -17 -12 -15 2 5 -4 -2 4 3 4 4 5 4 -19 -3 -18 -10 -20 -20 -20 -20
-20 -20 -18 -3 14 9 10 -7 -20 -20 -20 -20 -20 -20 -20 -20 -12 11 -3 -20 16 -10 -6 20 21 -9 19 4 -4 -3 1 -16 6 7 6 6 5 3 -4 -20 -20 -20 -20 -20
9 12 15 13 12 11 6 5 -10 -11 -20 -20 -20 -20 -20 -20 -20 -20 -20 -20 -20 -20 -20 -20 -2 -3 7 -3 -7 -1 4 5 5 6 5 5 5 6 5 2 1 1 -1 -15
23 12 12 6 24 10 4 8 14 -12 -20 -20 -20 -20 -20 -20 -20 -8 -20 -20 -20 -17 -10 -7 1 3 19 18 12 10 14 -10 -6 -1 2 1 -2 2 3 5 7 5 3 3
36 2 3 15 14 23 20 9 -7 10 8 16 -19 14 2 -20 -20 -20 -20 -18 -4 -19 -3 -5 -6 -2 13 19 16 13 5 -20 -20 -3 -7 1 4 0 1 1 4 6 4 10
13 12 16 29 25 23 19 22 -3 -20 4 9 -2 -20 -19 -20 -16 -6 -16 -13 -1 2 -2 1 14 0 8 18 17 9 2 -20 -20 -20 -9 -1 -3 -1 -3 -2 -0 -1 10 -15
3 8 30 28 24 21 17 2 3 -6 28 -9 -14 -20 -10 -20 -20 -3 -9 -0 -20 -20 4 10 13 13 11 6 -10 -20 -20 -20 -20 -20 -20 -20 -11 -13 -2 -2 -1 1 8 -3
-17 7 19 10 6 23 5 18 -9 -2 -15 -20 -20 -20 -9 -19 -7 1 10 -5 -16 -20 -20 1 3 -9 -20 -20 -20 -20 -20 -20 -20 -9 -20 -20 -4 -2 -1 -9 2 4 8 9
7 3 11 -12 -20 0 2 5 -4 -16 -20 -20 -7 6 -3 13 13 2 -1 -20 -20 -20 -20 -20 -20 -20 -20 -20 -20 -20 -18 -20 -20 -4 -18 -2 -1 1 5 1 4 7 8 7
-17 3 -3 -15 -20 -20 -20 -20 -20 -17 -7 -5 -3 11 3 -0 -11 -3 -20 -20 -20 -20 -20 -20 -20 -20 -20 -20 -20 0 -20 -20 -6 -2 -2 2 0 5 5 6 7 7 9 8
-20 -16 10 12 -20 -16 -20 -20 -19 -6 -7 6 -6 -6 -18 -20 -20 -20 -20 -20 -20 -20 -20 -20 -20 -20 -20 -20 -2 2 -6 -3 -0 -1 0 4 7 6 6 6 6 5 10 8
-20 -20 -7 -19 -19 -6 -15 -19 -15 10 5 -2 -3 -2 -20 -20 -20 -20 -20 -20 -20 -20 -20 -20 -20 -20 -20 -1 4 1 -1 -2 -1 0 4 -18 6 6 6 8 3 10 9 -20
-20 -20 -11 -14 -15 -20 -19 -17 1 15 -6 -18 -5 -20 -20 -20 -20 -20 -20 -20 -20 -20 -16 -20 -20 -20 1 4 1 -0 -5 -9 -2 5 5 3 8 5 8 6 1 7 5 4
-20 -17 1 -13 -8 -16 -20 -8 3 -2 7 8 -5 -12 -10 -20 -20 -20 -20 -20 -20 -20 -11 -20 -20 -20 2 1 -4 -6 -20 -0 -1 3 2 4 7 6 6 8 -1 0 1 2
-14 -20 -15 -20 -2 0 9 4 -20 -12 -20 -1 -20 2 -15 -14 1 -8 -13 -20 -8 3 -20 -20 -20 -16 -1 -2 -2 -14 -3 -6 -1 1 5 7 6 6 4 3 2 3 -12 -10

GFSNGP_prec_radar_198.txt.gz
Reflectivity
-20 -20 -20 -20 -20 -20 -20 -11 13 -20 -20 -20 -20 -20 -20 -18 -18 -16 -7 -20 -19 -8 4 13 12 14 18 18 7 6 5 3 -8 3 4 -20 -20 -20 -20 -20 -20 -20 -20 -20
-20 -20 -20 -20 -20 -20 -20 -20 -20 -20 -20 -20 -20 -20 -20 -20 -20 -20 -20 -20 -20 -20 -16 -20 6 3 3 12 20 15 10 11 15 -0 -15 -20 -20 -20 -20 -14 -20 -20 -20 -18
13 16 15 14 -20 -20 -20 -17 -14 -14 -16 -20 -20 -20 -20 -20 -19 -20 -9 -20 -20 -12 -11 -16 -18 1 -2 -7 -5 8 9 9 2 -11 -20 -20 -10 -20 -20 -20 -20 -20 -20 -13
10 7 15 -20 -20 -20 -20 -18 -10 -1 3 -20 -20 -20 -20 -20 -20 -20 -20 -20 -20 -7 6 -20 -20 -20 -20 -16 -20 -18 -14 -14 -15 -17 -20 -20 -20 -20 -20 -20 -20 -20 11 6
15 7 -18 -20 -20 -20 -20 -9 1 -20 -20 -20 -20 -20 -20 -20 -20 -20 -20 -20 -20 -20 -20 -20 -20 -20 -20 -20 -20 -20 -20 -20 -20 -20 -20 -20 -20 -20 -20 2 7 12 25 23
12 20 13 -20 -20 -20 0 12 -10 -20 -20 -20 -20 -20 -20 -20 10 -14 -8 9 -6 -19 7 -12 7 -20 -20 -20 -20 -20 -20 21 -20 -20 -20 -20 -20 -20 -17 12 21 27 27 31
-7 17 2 -20 -20 -20 11 2 -20 -20 -20 -20 -20 -20 -20 -19 4 -20 -20 -16 -3 13 -10 -20 15 -11 -20 -20 -20 -20 -20 -20 -20 -20 -20 -20 -20 -16 1 22 31 29 20 10
15 18 16 -20 -3 9 0 -19 -20 -20 -20 -15 -20 -20 -20 -20 -13 -20 -20 -20 -12 1 -14 -20 -19 -20 -20 -20 -20 2 -20 -20 -20 -20 -19 -4 17 25 25 14 13 16 11 15
14 11 -20 -20 -20 -20 -20 -20 -20 -20 -20 -20 -20 -20 -20 -20 -12 9 -20 -20 -18 9 -20 -20 33 -12 -20 -20 -19 -2 -20 -19 5 29 31 32 26 10 16 27 17 13 15 13
-1 -20 -20 -20 -20 -20 -20 -20 -20 -20 -20 -20 -20 -20 -20 -20 -20 -20 -20 -18 25 3 -20 -20 -20 -20 -20 -20 -20 -18 -19 9 21 20 23 30 32 24 15 9 15 17 13 7
-20 -20 -18 -20 -20 -20 -20 -20 -20 -20 -20 -20 -18 -20 -20 -18 -20 25 24 -20 -3 -20 -20 -20 -20 -20 -20 -20 -17 9 3 18 25 30 28 22 28 12 11 11 12 15 7 -5
-2 -20 1 -20 -20 -20 0 21 -2 13 -8 -20 16 -16 -20 -16 10 -5 21 -20 -20 -20 -20 -20 -9 -15 -20 -6 -11 -8 18 15 3 17 19 10 8 8 12 6 6 11 -7 -20
9 9 -0 -11 -20 -20 -12 -20 -20 -20 -20 18 0 -20 -20 -2 17 -9 4 -4 -20 -20 -20 -20 -20 -20 -2 -5 -11 -8 -10 -7 -7 -4 -19 7 -3 -20 -7 12 -6 -20 2 -20
-19 -20 -6 -17 -17 -20 -20 -15 -19 -7 2 -20 26 -5 -20 -20 -20 -15 -20 -20 -20 -20 -20 -19 -20 -9 38 18 -2 -2 -15 -20 -11 -12 -10 -19 -20 -20 -20 -19 -16 -3 -19 -20
15 18 26 26 15 4 6 13 9 30 16 -20 -20 -18 1 -20 -20 -20 -13 -20 -20 -20 -20 -17 -20 -12 15 26 -4 -6 -12 -10 3 -10 -1 -3 -20 -20 -20 -20 -20 -20 -20 -20
1 2 -15 3 17 19 16 16 10 1 -3 -7 -20 16 6 15 -20 -20 6 -20 -20 -20 -20 -20 -20 -20 12 7 19 16 10 15 10 -20 -7 -7 -18 -20 -20 -20 -20 -20 -20 -20
24 7 4 -3 3 1 3 19 22 25 2 -17 -20 -19 21 5 -20 -20 -20 -20 -20 -20 -16 -20 -14 24 12 1 16 15 10 8 9 -9 -20 -20 -10 -10 -20 -20 -20 -20 -20 -20
20 7 -15 23 27 15 3 1 23 18 11 -20 -6 8 3 -20 -20 -20 -20 -20 -18 -14 -17 -20 -3 9 16 10 24 18 -2 5 6 -3 -20 -20 -10 -20 -5 -15 -16 -20 2 -6
2 5 5 23 25 21 25 26 23 19 3 -11 -14 -9 -20 -20 -20 -18 -20 -20 -17 -20 -8 -12 6 10 12 5 16 15 13 5 -13 -20 -20 -20 -20 -20 -9 -20 -11 1 -20 -20
4 2 3 10 -5 5 -9 0 12 2 -12 -20 26 -15 -20 -20 -20 -20 -20 -10 -20 -20 -20 -4 8 10 8 7 7 -16 -16 -16 -20 -20 -20 -20 -16 -14 -8 -19 -18 -17 0 -20
4 -16 -9 27 5 -20 -13 -3 16 -2 -17 -19 -20 -20 -20 -20 -13 11 8 -7 -20 -20 -20 -20 -17 -14 -20 -20 -20 -20 -20 -20 -20 -20 -20 1 -16 2 -2 -15 -20 -9 -15 -7
1 -20 -20 -5 7 -18 -19 -20 -20 -4 4 14 5 -16 -6 5 6 4 -19 -20 -13 -20 -20 -20 -20 -20 -20 -20 -20 -20 -20 -20 -20 -20 -17 -13 -17 -2 -19 -13 -20 -8 -7 -11
-8 -10 -20 -20 -19 -19 -9 -11 -8 -17 -15 8 -5 -5 -5 -20 -10 -20 -19 -20 -20 -20 -20 -20 -20 -20 -20 -20 -20 -20 -20 -20 -20 -10 -2 -0 -4 6 -17 -9 4 -4 3 -20
-20 -20 -20 -15 -20 -17 -20 -20 -12 -16 13 10 2 9 -20 -1 -20 -20 -20 -20 -20 -20 -20 -20 -20 -20 -20 -20 -20 -20 -20 -14 -9 -1 -1 3 -9 -17 -3 -19 -3 -20 -18 -20
-20 -20 -17 -2 -19 -4 -16 -6 -5 -15 -2 2 13 13 -10 -20 -12 -20 -20 -20 -20 -20 -20 -20 -20 -20 -20 -20 -20 -20 -20 -12 1 3 -20 -8 -11 -2 -4 -1 -20 -20 -20 -20
-20 -7 -20 -17 4 -7 -16 -3 -0 14 11 -12 3 19 23 -13 -20 -20 -20 -20 -20 -20 -20 -20 -20 -20 -20 -20 -20 -16 -20 -9 -10 -8 -20 -10 -13 -20 -3 -20 -20 -20 -20 -20
-20 -20 1 -6 2 6 -5 1 -20 2 9 29 9 5 22 -1 -16 -19 -20 -20 -20 -20 -20 -20 -20 -10 -20 -20 -20 -16 -20 -20 -9 -15 -20 -13 -20 -15 -20 -20 -20 -20 -20 -20

GFSNGP_prec_radar_201.txt.gz
Reflectivity
-20 -20 -20 -20 -20 -20 1 4 7 6 8 -20 2 -14 -20 -20 -20 -20 -20 -20 -20 -20 -19 -1 4 0 4 9 11 10 10 10 13 -11 14 13 16 10 -10 2 -6 -18 -11 6
-16 18 -18 -20 -20 -20 -20 -20 -20 -17 -19 -20 -20 -20 -20 -20 -18 -20 -20 -20 -20 -20 -20 -20 -20 -20 -20 -19 -19 -6 6 7 8 -18 -3 10 4 10 3 7 1 -17 -20 -18
14 -1 10 -5 -20 -20 -20 -20 -12 -12 -2 -3 -20 -20 -20 -20 -20 -20 -20 -20 -20 -20 -20 -20 -20 -20 -20 -13 -16 6 -16 -10 3 -10 -10 -20 -20 -20 -20 -14 -14 -13 -20 -19
-10 -16 -12 -16 -20 -20 -20 -20 -19 11 1 -18 -20 -20 -20 -20 -20 -20 -20 -20 -20 -20 -20 -20 -20 -20 -16 2 -20 -17 -20 -20 -14 1 -4 -17 -20 -20 -20 -20 3 -15 5 4
-20 -20 -20 -20 -20 -20 -20 -20 2 -17 -20 -20 -20 -20 -20 -20 -20 -20 -20 -20 -20 -20 -20 -20 -20 -20 12 26 -20 -20 -20 -20 -20 -20 -19 -20 -10 -20 -20 -20 -13 13 8 21
20 24 20 -8 -20 -20 -20 -18 -20 -18 -19 -20 -20 -20 -20 -20 -20 -20 -20 -20 -20 -20 -20 0 2 8 -15 -19 -20 -19 -20 -20 -20 -17 -20 -20 -20 -5 -8 -20 -15 -8 5 15
-20 -5 -3 -20 -20 -20 -15 -20 -20 -20 -20 -20 -20 -20 -20 -20 -20 -20 -20 -20 -20 -20 -20 -20 -18 -20 -20 -9 -20 -20 -20 -20 -20 -20 15 -12 -13 -20 -6 4 -1 5 10 12
-19 -14 -20 -20 -20 -17 -20 -20 -20 -20 -20 -20 -20 -20 -20 -20 -20 -20 -20 -20 -20 -20 -20 -20 -20 -20 -0 -20 -20 -19 -20 -20 -20 -20 -20 -20 -20 -20 -8 2 16 16 9 17
-16 -10 -20 -20 -20 -20 -20 -20 -20 -20 -20 -20 -20 -20 -20 -20 -20 -20 -20 -20 -20 -20 -20 -20 -20 -1 -17 -20 -17 -18 -9 -19 -20 -20 -20 -8 -2 10 18 28 20 13 15 9
-20 -20 -20 -20 -20 -20 -20 -20 -20 -20 -20 -20 -20 -20 -20 -20 -20 -20 -20 -20 -20 -20 -20 -20 -20 -20 -20 -20 -20 -20 -19 -20 -16 -12 7 14 31 36 24 18 13 9 12 12
-20 -20 -20 -20 -20 -20 -20 -20 -20 -20 -15 -20 -16 -20 -20 -20 -6 -19 -3 23 -20 -20 -18 -16 -20 -13 -20 -20 -20 -20 -17 -20 -19 -2 3 20 24 17 18 13 -7 2 5 -0
-20 -20 -12 -11 -20 -20 -20 -20 -20 -20 -20 -20 -20 -20 -20 -20 13 -20 24 25 32 16 11 18 20 -20 -20 -20 -20 -20 -20 -18 18 2 11 21 18 21 10 11 2 3 9 11
-20 -20 -11 -19 -20 -20 -16 -13 -18 -19 -20 -20 -20 -20 -20 -20 23 -20 -20 -13 7 21 13 -20 -20 -20 -20 -20 -20 -20 -20 -20 -20 -20 8 15 14 12 11 16 4 -15 -6 -0
-13 -9 18 3 4 4 -20 -15 6 3 -17 -16 -2 -20 -20 -20 -2 -20 -20 -8 -20 -20 -20 -20 -20 -20 -20 -5 33 -9 -20 -20 -20 -20 -9 8 11 1 -20 -20 -12 2 -4 -20
26 15 14 3 6 -9 -20 -20 -7 -11 -16 -17 -20 -20 -20 -20 -5 -20 -20 -10 -20 -20 -20 -20 -20 -20 -20 -17 0 -20 -20 -18 -19 -19 -3 -19 -20 -20 -20 -20 -20 -20 -18 -20
-15 -20 -20 -14 -20 -20 -8 -2 10 -0 1 2 5 -11 -15 3 -20 -20 5 -1 -20 -20 -13 -20 -20 -17 -2 -19 -20 -20 -20 -19 -18 14 12 -20 -20 -20 -20 -20 -20 -20 -20 -20
-15 -7 -19 -15 -1 -12 3 -5 12 19 13 3 -2 -20 24 10 -20 -14 -20 -19 -20 -20 -20 -20 -20 -0 6 19 16 -20 -7 -15 -18 5 2 -20 -20 -20 -20 -20 -20 -20 -20 -20
-20 -1 1 -1 10 5 -4 -19 11 9 20 17 4 -18 -9 -16 -3 -20 -6 -6 -20 -20 -20 -20 -20 -19 -9 17 -1 -19 -11 5 1 6 -18 -20 -20 -20 -20 -20 -20 -20 -20 -20
-20 -17 -1 -7 30 11 9 7 6 16 12 15 10 -20 23 28 2 -20 -20 -20 -20 -20 -20 -20 -16 4 -18 -20 -3 -16 -15 -4 2 -20 -20 -20 -20 -20 -20 -20 -20 -20 -20 -20
-20 -20 -18 -18 -8 20 7 -20 -17 0 18 -11 -15 -20 -20 -20 -20 -20 -20 -20 -20 -20 -20 -20 -20 -13 2 -16 -17 -17 -17 -20 -20 -20 -20 -20 -20 -20 -20 -20 -20 -20 -20 -20
-20 -20 -20 -20 -20 -16 -19 -0 -1 -19 -20 3 -19 -20 -20 -20 -20 -20 -20 -20 -18 -20 -20 -20 -20 -20 -20 -13 -17 -20 -20 -20 -20 -20 -20 -20 -20 -20 -20 -20 -20 -20 -20 -20
-20 -20 -20 -20 -20 -20 -16 -18 -17 -6 -9 -20 -20 -20 -18 -16 -20 -19 -20 -20 -20 -20 -20 -20 -20 -20 -20 -20 -20 -20 -20 -20 -20 -20 -20 -20 -20 -20 -20 -20 -20 -20 -20 -20
-20 -20 -20 -20 -20 -20 -7 -20 -20 -20 -20 -13 0 -16 -20 -20 -20 -20 -20 -20 -20 -20 -20 -20 -20 -20 -20 -20 -20 -20 -20 -20 -20 -20 -20 -20 -20 -20 -20 -20 -20 -20 -20 -20
-20 -20 -20 -20 -20 -20 4 -20 -20 -20 -15 -20 -11 3 -5 -20 -20 -20 -20 -20 -20 -20 -20 -20 -20 -20 -20 -20 -20 -20 -20 -20 -20 -20 -20 -20 -20 -20 -20 -20 -20 -20 -20 -20
-20 -20 -20 -20 -20 -7 8 6 -20 -20 -20 -20 -20 -0 -0 -17 -18 -20 -20 -20 -20 -20 -20 -20 -20 -20 -20 -20 -20 -20 -20 -20 -20 -20 -20 -20 -20 -20 -20 -20 -20 -20 -20 -20
-20 -20 -20 -20 -17 -20 -12 8 -20 -20 -20 -20 -20 -19 6 14 7 -10 -20 -20 -20 -20 -20 -20 -20 -20 -20 -20 -20 -20 -20 -20 -20 -20 -20 -20 -20 -20 -20 -20 -20 -20 -20 -20
-20 -20 -20 -20 -20 -20 6 11 -20 -20 -6 -8 -19 -15 -6 -8 5 10 4 -20 -20 -20 -20 -20 -20 -20 -20 -20 -20 -20 -20 -20 -20 -20 -20 -20 -20 -20 -20 -20 -20 -20 -20 -20

GFSNGP_prec_radar_204.txt.gz
Reflectivity
-20 -20 -20 -20 -20 -20 -20 -20 -2 -8 -20 -20 1 20 15 7 3 -5 -20 -20 -20 -20 -20 -20 -20 -20 -20 -20 -20 -20 -19 -6 6 -8 10 5 9 -4 12 -10 -0 11 21 19
-20 -20 1 5 -20 -20 -20 -20 -20 -20 -11 -1 5 11 7 -2 -20 -16 -20 -20 -20 -20 -20 -20 -20 -20 -20 -20 -20 -20 -20 11 10 -18 -20 -9 -9 6 2 -3 1 14 19 12
-7 -20 -5 14 -20 -19 1 -14 2 8 -19 -20 -20 -20 -20 -20 -20 -20 -20 -20 -20 -20 -20 -20 -20 -20 -20 -20 -5 -20 -20 -20 -5 -20 -14 -17 -10 -20 -18 -11 -18 -20 -20 -20
-20 -20 1 -20 -20 -20 -20 0 2 -12 -18 -20 -20 -20 -20 -20 -20 -20 -20 -20 -20 -20 -20 -20 -20 -20 -20 -20 -20 -20 -20 -20 -19 -20 -13 -14 -19 -20 -20 -20 -20 -20 -20 -19
10 -19 -20 -20 -20 -20 -20 -20 -20 -20 -20 -20 -20 -20 -20 -16 -20 -20 -20 -20 -20 -20 -20 -20 -20 -20 -20 -20 -20 -20 -20 14 -3 -20 -20 -20 -20 -20 10 13 -20 -20 -20 -8
6 16 12 -20 -20 -20 -20 -20 -20 -20 -20 -20 -20 -20 -20 -20 -20 -20 -20 -20 -20 -20 -20 -20 -20 -20 -20 -20 -20 -20 -20 -9 4 -20 -20 -20 -20 -20 14 -17 7 -20 -20 9
-20 -7 -20 -20 -20 -20 -20 -20 -20 -20 -20 -20 -20 -20 -20 -20 -20 -20 -20 -20 -20 -20 -20 -20 -20 -20 -20 -20 -20 -20 -20 -20 -20 -20 -17 -20 -20 -20 8 -20 21 -19 -20 -8
-20 -20 -20 -20 -20 -20 -20 -20 -20 -20 -20 -20 -20 -20 -20 -20 -20 -20 -20 -20 -20 -20 -20 -20 -20 -20 -20 -20 -20 -3 -20 -5 -20 -20 -20 -20 -20 -20 -20 -16 12 24 20 7
-20 -20 -20 -20 -20 -20 -20 -20 -20 -20 -20 -20 -20 -20 -20 -20 -20 -20 -20 -20 -20 -20 -20 -20 -20 -11 -20 -20 -20 -20 -20 -20 -12 -20 -20 -20 -20 -13 1 3 6 6 14 13
-20 -20 -20 -20 -20 -20 -20 -20 -20 -20 -20 -20 -20 -20 -20 -20 -20 -20 -20 -20 -20 -20 -20 -20 -20 -20 -20 -10 -16 -18 -20 -20 -20 -20 -16 -20 -13 -2 7 17 11 -6 20 32
-20 -20 -20 -20 -20 -20 -20 -20 -20 -20 -20 -20 -20 -20 -20 -20 -20 -20 -20 -20 -20 -20 -13 -5 2 -5 12 -6 -20 -20 -20 -20 -20 -20 -15 -20 -3 2 -2 11 24 27 23 -6
-20 -20 -20 -20 -20 -20 -20 -20 -4 9 -16 -20 -20 -20 -20 -20 -20 -20 -20 -20 -20 0 2 -20 -1 26 -13 -20 -20 -20 -20 -20 -15 -20 -20 -1 9 16 22 20 21 19 11 2
-20 -13 11 16 12 -20 -18 -0 -20 -13 1 7 -9 -9 -20 -20 -20 -20 -20 -20 -20 -20 7 31 5 10 -20 -20 -20 -20 -20 -20 -20 -20 -7 -1 18 14 12 19 16 13 4 -20
4 33 6 -20 -5 -19 -20 -20 -20 -20 -20 -11 -1 10 -14 -20 -20 -20 -20 -20 -20 -20 -20 -3 -20 -16 -20 -20 -20 -20 -13 -7 -20 -13 -9 2 7 -2 9 8 2 14 15 7
5 -17 -20 -20 -15 -20 -20 -20 -7 -20 -20 -20 -9 6 16 7 -11 -20 -20 -20 -20 -20 -20 -20 -18 -15 -20 -20 -20 -14 -11 -20 -20 -20 -20 6 -0 9 13 8 -8 -14 -13 -11
-19 -20 -14 -20 -20 -5 -17 -20 -4 -20 -20 -7 5 18 12 -5 -8 -20 -20 -20 -20 -20 -20 -20 -8 -20 -20 -20 -20 -20 -20 -20 -20 -20 -19 10 2 -2 -17 -20 -20 -20 -20 -20
-20 -20 -20 -20 -5 -20 -2 5 2 -16 -7 -4 20 23 12 -6 20 3 -20 8 3 -5 -19 -9 7 -18 -20 -20 -20 -20 -20 -20 -20 -20 -18 11 -15 -20 -20 -20 -20 -20 -20 -20
-20 -20 -17 -1 5 -19 -20 -19 -20 -19 -4 12 18 19 -13 -8 -6 13 -20 -10 -6 5 -11 5 13 8 -7 -20 -20 -19 -20 -20 -20 -20 -12 -19 -20 -20 -20 -20 -20 -20 -20 -20
-20 -20 -20 -20 -20 -20 -18 -6 -10 -2 -15 -18 -12 -11 -11 29 8 11 -20 -20 -20 -20 -20 -20 0 5 8 -12 -9 -20 -20 -20 -20 -19 -20 -20 -20 -20 -20 -20 -20 -20 -20 -20
-20 -20 -20 -20 -20 -20 -20 -20 -19 -20 3 -19 -17 -17 -20 -6 -20 -20 -20 -20 -20 -20 -20 -17 -13 -15 -14 -12 -19 -6 -20 -20 -20 -20 -20 -20 -20 -20 -20 -20 -20 -20 -20 -20
-20 -20 -20 -20 -20 -20 -20 -20 -20 -20 -20 -18 10 -12 -2 -19 -20 -16 -20 -20 -20 -20 -19 -15 -12 -11 -4 2 1 -19 -20 -20 -20 -20 -20 -20 -20 -20 -20 -20 -20 -20 -20 -20
-20 -20 -20 -20 -20 -20 -20 -16 -20 -20 -20 -20 -11 -20 -18 -1 -20 -19 -18 -20 -20 -20 -20 -20 -20 -20 -20 -20 -20 -20 -20 -20 -20 -20 -20 -20 -20 -20 -20 -20 -20 -20 -20 -20
-20 -20 -20 -20 -20 -20 -20 -20 -11 -20 -20 -20 -20 -4 -18 -19 -16 -20 -20 -20 -20 -20 -20 -20 -20 -20 -20 -20 -20 -20 -20 -20 -20 -20 -20 -20 -20 -20 -20 -20 -20 -20 -20 -20
-20 -20 -20 -20 -20 -20 -20 -20 -20 -20 -20 -20 -20 -7 2 -7 -20 -20 -20 -20 -20 -20 -20 -20 -20 -20 -20 -20 -20 -20 -20 -20 -20 -20 -20 -20 -20 -20 -20 -20 -20 -20 -20 -20
-20 -20 -20 -20 -20 -20 -20 -20 -20 -20 -20 -20 -20 -20 3 5 10 -13 -20 -20 -20 -20 -20 -20 -20 -20 -20 -20 -20 -20 -20 -20 -20 -20 -20 -20 -20 -20 -20 -20 -20 -20 -20 -20
-20 -20 -20 -20 -20 -20 -20 -20 -20 -20 -20 -20 -20 -20 -20 -4 8 3 -18 -20 -20 -20 -20 -20 -20 -20 -20 -20 -20 -20 -20 -20 -20 -20 -20 -20 -20 -20 -20 -20 -20 -20 -20 -20
-20 -20 -20 -20 -20 -20 -20 -16 -20 -20 -20 -20 -20 -20 -20 -20 -15 9 6 -17 -20 -20 -20 -20 -20 -20 -20 -20 -20 -20 -20 -20 -20 -20 -20 -20 -20 -20 -20 -20 -20 -20 -20 -20

GFSNGP_prec_radar_210.txt.gz
Reflectivity
-20 -20 -20 -20 -20 -20 -20 -20 5 -20 -20 -20 -20 -20 -20 -20 -20 -20 -20 -20 -20 -20 -20 -19 -11 -20 -20 -20 -20 -20 -20 -20 -20 -20 -20 -20 -20 -20 -19 -6 2 16 17 25
-20 -20 -20 -20 -20 -20 -20 -20 -20 -20 -20 -20 -20 -20 -20 -20 -20 -11 -20 -20 -20 -20 -20 -20 -20 -20 -20 -20 -20 -16 -20 -20 -20 -20 -20 -20 -20 -20 -20 -20 -13 10 20 16
-20 -20 -20 -20 -20 -20 -20 -20 -20 -20 -20 -20 -20 -20 -20 -20 -20 -20 -20 -20 -20 -20 -20 -20 -20 -20 -20 -20 -20 -20 -20 -20 -20 -20 -20 -20 -20 -20 -20 -20 -14 -4 5 21
-20 -20 -20 -20 -20 -20 -20 -20 -20 -20 -20 -20 -20 -20 -20 -20 -20 -20 -20 -20 -20 -20 -20 -20 -20 -20 -20 -20 -20 -20 -20 -20 -20 -20 -20 -20 -20 -20 -20 -20 -20 -20 6 -8
-20 -20 -20 -20 -20 -20 -20 -20 -20 -20 -20 -20 -20 -20 -20 -20 -20 -20 -20 -20 -20 -20 -20 -20 -20 -20 -20 -20 -20 -20 -20 -20 -20 -20 -20 -20 -20 -20 -20 -20 -20 -20 -20 -16
-20 -20 -20 -20 -20 -20 -20 -20 -20 -20 -20 -20 -20 -20 -20 -20 -20 -20 -20 -20 -20 -20 -20 -20 -20 -20 -20 -20 -20 -20 -20 -20 -20 -20 -20 -20 -20 -20 -20 -20 -20 -20 -17 23
-20 -20 -20 -20 -20 -20 -20 -20 -20 -20 -20 -20 -20 -20 -20 -20 -20 -20 -20 -20 -20 -20 -20 -20 -20 -20 -20 -20 -20 -20 -20 -20 -20 -20 7 -13 -11 1 -12 -20 -20 -20 -20 -6
-20 -20 -20 -20 -20 -20 -20 -20 -20 -20 -20 -20 -20 -20 -20 -20 -20 -20 -20 -20 -20 -20 -20 -20 -20 -20 -20 -20 -20 -20 -20 -20 -20 -0 -8 9 -15 -20 -19 -14 -20 -20 -18 2
-20 -20 -20 -20 -20 -20 -20 -20 -20 -20 -20 -20 -20 -20 -20 -20 -20 -20 -20 -20 -20 -20 -20 -20 -20 -20 -20 -20 -20 -20 -20 -19 7 8 4 -20 -20 -20 -20 -19 -7 -17 10 2
-20 -20 -20 -20 -20 -20 -20 -20 -20 -20 -20 -16 2 -11 -20 -12 -20 -20 -20 -20 -20 -20 -20 -20 -20 -20 -20 -20 -20 -20 -20 -20 -20 -4 -20 -20 -16 -20 -20 9 8 9 6 13
-20 -20 -20 -20 -20 -20 -20 -20 -20 -17 -10 -7 -1 -20 -20 -20 -20 -20 -20 -5 9 10 -19 -20 -20 -20 -20 -20 -20 -20 -20 -20 -20 -20 -20 -20 -20 -20 -16 -18 0 -10 -11 3
-20 -20 -20 -20 -20 -20 -20 -20 -20 -20 -20 -20 -20 2 -10 -17 -20 -20 -20 -19 -2 -4 -8 -20 -20 -20 -20 -20 -20 -20 -15 -9 -20 -20 -20 -16 -12 -18 5 12 12 14 15 -1
-20 -20 -9 -19 -20 -20 -20 -20 -20 -20 -1 6 -11 3 4 2 -10 -11 -7 8 18 19 10 -18 -20 -20 -20 -20 -20 -20 -3 -20 -20 -20 -19 -20 -20 -20 -20 -18 -16 -17 -12 -14
-20 -19 -20 -20 -20 -20 -20 -20 -20 -20 -20 -0 17 7 4 -3 -9 2 22 19 23 26 -10 -20 -20 -20 -20 -20 -20 -20 -20 -20 -20 -20 -19 -2 14 6 -2 -20 -20 -5 4 6
-20 -20 -20 -20 -20 -20 -20 -20 -20 -20 -20 -20 -20 -17 1 7 -16 18 23 23 16 -4 -20 -8 -8 -16 -20 -20 -20 -20 -20 -20 -20 -20 0 18 8 11 8 -7 4 8 11 16
-20 -20 -20 -20 -20 -20 -20 -20 -20 -7 -2 -20 -20 -20 -20 4 -17 5 26 8 -18 -20 -12 -1 6 4 -14 -6 -20 -20 -20 -20 -20 -20 -5 12 14 6 13 15 15 10 -2 -1
-20 -20 -20 -20 -20 -20 -20 -20 -20 -20 -20 -20 -20 -20 -20 -20 -20 -20 13 11 -9 0 12 6 12 15 16 -20 -20 -20 -20 -20 -20 -20 -20 -19 4 -16 1 -17 -2 -0 -10 -7
-20 -20 -20 -20 -20 -20 -20 -20 -20 -20 -20 -20 -20 -20 -20 -10 -20 -20 -19 -20 -20 -20 -19 -20 -3 12 -5 4 -15 -20 -20 -20 -20 -20 -20 -17 -19 -20 -20 -20 -20 -20 -20 -20
-20 -20 -20 -20 -20 -20 -20 -20 -20 -20 -20 -20 -20 -20 -20 6 1 -19 -20 -20 -20 -20 -20 -20 -20 -9 -19 2 -9 -16 -19 -20 -20 -19 -18 -19 2 -4 -20 -20 -20 -20 -20 -20
-20 -20 -20 -20 -20 -20 -20 -20 -20 -20 -20 -20 -20 -20 -20 -20 -20 -20 -20 -20 -19 -14 -20 -20 -20 -19 -18 -7 0 -2 -18 -17 -18 -18 -11 -14 1 -6 -20 -20 -20 -20 -20 -20
-20 -20 -20 -20 -20 -20 -20 -20 -20 -20 -20 -20 -20 -20 -20 -20 -20 3 -5 -3 -15 -20 -20 -20 -20 -20 -13 3 -7 -16 -17 -16 -17 -17 -17 -9 -2 -16 -20 -20 -20 -20 -20 -20
-20 -20 -20 -20 -20 -20 -20 -20 -20 -20 -20 -20 -20 -20 -20 -20 -20 -20 9 13 -18 -18 -19 -19 -20 -20 -20 -10 -10 -5 -15 -16 -18 -20 -13 -6 -10 -20 -20 -20 -20 -20 -20 -20
-20 -20 -20 -20 -20 -20 -20 -20 -20 -20 -20 -20 -20 -20 -20 -20 -20 -10 -20 -7 -1 -20 -6 -7 -20 -20 -20 -18 -20 -20 -19 -19 -19 -20 -20 -20 -20 -20 -20 -20 -20 -20 -20 -20
-20 -20 -20 -20 -20 -20 -20 -20 -20 -20 -20 -20 -20 -20 -20 -20 -20 -20 -19 -20 -12 6 -19 -20 -20 -4 -20 -20 -20 -20 -20 -19 -19 -12 -11 -20 -20 -20 -20 -20 -20 -20 -20 -20
-20 -19 -20 -20 -20 -20 -20 -20 -20 -20 -20 -20 -20 -20 -20 -20 -20 -20 -20 -20 -20 -12 0 -18 -20 -20 -20 -20 -20 -20 -20 -20 0 6 -1 -20 -20 -20 -20 -20 -20 -20 -20 -20
7 -20 -3 -10 -12 -17 -20 -20 -20 -20 -20 -20 -20 -20 -20 -20 -20 -20 -20 -20 -20 -20 -3 6 -11 -20 -20 -20 -20 -20 -20 -20 -13 -19 -20 -20 -20 -20 -20 -20 -20 -20 -20 -20
-14 -15 -20 -20 -12 -10 -20 -20 -20 -20 -20 -20 -20 -20 -20 -20 -20 -20 -20 -20 -20 -20 -14 8 9 -4 -20 -20 -20 -20 -20 -20 -20 -20 -20 -20 -20 -20 -20 -20 -20 -20 -20 -20

GFSNGP_prec_radar_213.txt.gz
Reflectivity
9 3 -19 -20 -20 -20 -20 -20 -20 -20 -20 -20 -20 -20 -20 -20 -20 -20 -20 -20 -20 -20 -20 -20 -20 -20 -20 -20 -20 -20 -20 -20 -20 -20 -20 -20 -12 -1 -7 -12 14 -20 -20 -20
-20 -18 -20 -20 -20 -20 -20 -20 -20 -20 -20 -20 -20 -20 -20 -20 -20 -20 -20 -20 -20 -20 -20 -20 -20 -20 -20 -20 -20 -20 -20 -20 -20 -20 -20 -20 -20 -17 -20 -20 -20 -20 -20 18
-20 -20 -20 -20 -20 -20 -20 -20 -20 -20 -20 -20 -20 -20 -20 -20 -20 -20 -20 -20 -20 -20 -20 -20 -20 -20 -20 -20 -20 -20 -20 -20 -20 -20 -20 -20 -20 -20 -20 -20 -20 -20 -20 -20
-20 -20 -20 -20 -20 -20 -20 -20 -20 -20 -20 -20 -20 -20 -20 -20 -20 -20 -20 -20 -20 -20 -20 -20 -20 -20 -20 -20 -20 -20 -20 -20 -20 -20 -20 -20 -20 -20 -20 -20 -20 -20 -20 -20
-20 -20 -20 -20 -20 -20 -20 -20 -20 -20 -20 -20 -20 -20 -20 -20 -20 -20 -20 -20 -20 -20 -20 -20 -20 -20 -20 -20 -20 -20 -20 -20 -20 -20 -20 -20 -20 -20 -20 -20 -20 -20 -20 -20
-20 -20 -20 -20 -20 -20 -20 -20 -20 -20 -20 -20 -20 -20 -20 -20 -20 -20 -20 -20 -20 -20 -20 -20 -20 -20 -20 -20 -20 -20 -20 -20 -20 -20 -20 -20 -20 -20 -20 -19 -20 -20 -17 -20
-20 -20 -20 -20 -20 -20 -20 -20 -20 -20 -20 -20 -20 -20 -20 -20 -20 -20 -20 -20 -20 -20 -20 -20 -20 -20 -20 -20 -20 -20 -20 -20 -20 -20 -20 -20 -14 -20 -18 -20 -20 -20 -20 -20
-20 -20 -20 -20 -20 -20 -20 -20 -20 -20 -20 -20 -20 -20 -20 -20 -20 -20 -20 -20 -20 -20 -20 -20 -20 -20 -20 -20 -20 -20 -20 -20 -20 -20 -20 -20 -20 -20 -11 -20 -20 -20 -20 -20
-20 -20 -20 -20 -20 -20 -20 -20 -20 -20 -20 -20 -20 -7 -20 -18 -20 -20 -20 -20 -20 -20 -20 -20 -20 -20 -20 -20 -20 -20 -20 -20 -20 -20 -20 -20 -20 -20 -20 -20 -20 -20 -20 -18
-20 -20 -20 -20 -20 -20 -20 -20 -20 -20 -20 -20 -20 -20 -20 -20 -20 -20 -20 -20 -20 -20 -11 -17 2 -9 -20 -20 -20 -20 -20 -20 -20 -20 -16 -2 -1 -17 -11 -20 -20 -20 -18 -7
-20 -20 -20 -20 -20 -20 -20 -20 -20 -20 -20 -20 -20 -1 -3 4 -20 -20 -20 -19 1 7 8 5 4 -8 -20 -20 -20 -20 -20 -20 -20 7 28 -20 -20 -20 -20 -20 -7 -16 -2 -4
-20 -20 -20 -20 -20 -20 -20 -20 -20 -20 -20 -20 -15 -15 -14 -13 -11 -20 -20 -20 -4 4 5 3 7 8 -20 -20 -20 -20 -20 -20 -12 -19 -20 -20 -20 -20 7 -5 5 7 4 8
-20 -20 -20 -20 -20 -20 -20 -20 -20 -20 -20 -20 -20 -17 -8 1 3 1 -20 -20 16 22 6 15 6 -10 -20 -20 -20 -20 -20 -20 -20 2 -20 -20 -10 -2 -20 -12 12 16 17 20
-20 -20 -20 -20 -20 -20 -20 -20 -20 -20 -20 -20 -20 -20 -20 -16 -5 -20 -20 -12 16 23 17 23 -6 -20 -20 -20 -20 -20 -20 7 -18 -20 -20 -14 11 12 -14 -3 -0 5 -10 -2
-20 -20 -20 -20 -20 -20 -20 -20 -20 -20 -20 -20 -20 -20 -20 -20 -20 -20 -20 -6 18 26 3 -12 -20 -16 -0 6 -17 -20 -20 -20 -20 -20 -20 0 7 -0 1 13 12 1 6 11
-20 -20 -20 -20 -20 -20 -20 -20 -20 -20 -20 -20 -20 -20 -20 -20 -20 -16 -9 4 13 -14 -4 -15 6 1 9 13 -18 -8 -19 3 -4 -20 -20 4 -19 -5 8 -14 0 0 8 11
-20 -20 -20 -20 -20 -20 -20 -20 -20 -20 -20 -20 -20 -20 -20 -20 -20 -20 -20 -16 -5 -8 -3 -10 -17 -8 -1 -6 -20 -20 -20 -20 -20 -20 -20 -17 -20 -6 6 7 4 0 10 10
-20 -20 -20 -20 -20 -20 -20 -20 -20 -20 -20 -20 -20 -20 -20 -20 -20 -20 -20 -20 -20 -20 -4 -11 -20 -20 -17 -11 -14 -20 -20 -20 -20 -20 -20 -20 -20 -18 1 -15 -15 -9 -5 -5
-20 -20 -20 -20 -20 -20 -20 -20 -20 -20 -20 -20 -20 -20 -20 -20 -20 -20 -20 -20 -20 -20 -20 -20 -20 -20 -20 -1 -5 -19 -19 -20 -20 -20 -20 -20 -20 -20 -9 -20 -20 -20 -20 -20
-20 -20 -20 -20 -20 -20 -20 -20 -20 -20 -20 -20 -20 -20 -20 -20 -20 -20 -20 -20 5 13 5 -18 -20 -20 -20 -19 -14 -18 -15 -20 -20 -17 -18 -19 -20 -20 -20 -20 -20 -20 -20 -20
-20 -20 -20 -20 -20 -20 -20 -20 -20 -20 -20 -20 -20 -20 -20 -20 -20 -20 -20 -16 -20 -20 -20 0 -6 -20 -6 2 11 -5 0 -18 -20 -19 -20 -18 -18 -20 -20 -19 -20 -20 -20 -20
-20 -20 -20 -20 -20 -20 -20 -20 -20 -20 -20 -20 -20 -20 -20 -20 -20 -20 -20 -20 -20 -20 -20 -20 -20 -15 -2 -13 -4 -2 1 -6 -18 -17 -18 -17 -19 -20 -20 -20 -20 -20 -20 -20
-20 -20 -20 -20 -20 -20 -20 -20 -20 -20 -20 -20 -20 -20 -20 -20 -20 -20 -20 -20 -20 -20 -11 -20 -20 -20 -20 -20 -20 -20 -20 -19 -18 -13 -17 -8 -13 -14 -11 -20 -20 -20 -20 -20
-20 -20 -20 -20 -20 -20 -20 -20 -20 -20 -20 -20 -20 -20 -20 -20 -20 -20 -20 -20 -20 -20 -20 -20 -18 -20 -20 -20 -20 -20 -20 -20 -20 -6 -0 -6 0 4 -3 -20 -20 -20 -20 -20
-20 -20 -6 -11 4 -19 -20 -20 -20 -20 -20 -20 -20 -20 -20 -20 -20 -20 -20 -20 -20 -20 -20 -20 -20 -20 -6 -12 -20 -20 -20 -20 -20 -20 -20 -20 -20 -20 -20 -20 -20 -20 -20 -20
-20 -19 13 18 4 5 5 8 3 -12 -12 -19 -20 -20 -20 -20 -20 -20 -20 -20 -20 -20 -20 -12 4 -14 -10 7 -7 -12 -20 -20 -20 -20 -20 -20 -20 -20 -20 -20 -20 -20 -20 -20
-20 -20 -20 -20 -14 -2 -12 -9 -7 -17 -20 -20 -20 -20 -20 -20 -20 -20 -20 -20 -20 -20 -20 -3 -4 -10 -12 7 11 0 0 -17 -20 -20 -20 -20 -20 -20 -20 -20 -20 -20 -20 -20

GFSNGP_prec_radar_216.txt.gz
Reflectivity
-20 -18 -20 -20 -20 -20 -11 -20 -20 -20 -20 -20 -20 -20 -20 -20 -20 -20 -20 -20 -20 -20 -20 -20 -20 -20 -20 -20 -20 -20 -20 -20 -3 -0 -16 -2 -17 -20 -20 -20 -20 -20 -10 -19
-20 -20 -20 -20 -20 -20 -20 -20 -17 -20 -20 -20 -20 -20 -20 -20 -20 -20 -20 -20 -20 -20 -20 -20 -20 -20 -20 -20 -20 -20 -20 -20 -20 -8 -11 -20 -20 -20 -20 -20 -20 -20 -20 -6
4 -20 -20 -20 -20 -20 -8 -5 -20 -20 -20 -20 -20 -20 -20 -20 -20 -20 -20 -20 -20 -20 -20 -20 -20 -20 -20 -20 -20 -20 -20 -20 -20 -20 -20 -20 -20 -20 -20 -20 -20 -20 -20 -12
-12 -20 -20 -20 -20 -20 -20 -20 -20 -20 -20 -20 -20 -20 -20 -20 -20 -20 -20 -20 -20 -20 -20 -20 -20 -20 -20 -20 -20 -20 -20 -20 -20 -20 -20 -20 -20 -20 -20 -20 -20 -20 -20 -20
-20 -20 -20 -20 -20 -20 -20 -20 -20 -20 -20 -20 -20 -20 -20 -20 -20 -20 -20 -20 -20 -20 -20 -20 -20 -20 -20 -20 -20 -20 -20 -20 -20 -20 -20 -20 -20 -20 -20 -20 -20 -20 -20 -20
-20 -20 -20 -20 -20 -5 -10 -20 -20 -20 -20 -20 -20 -20 -20 -20 -20 -20 -20 -20 -20 -20 -20 -20 -20 -20 -20 -20 -20 -20 -20 -20 -20 -20 -20 -20 -20 -20 -20 -16 -20 -20 -20 -20
-20 -20 -20 -20 -20 -20 -20 -20 -20 -20 -20 -20 -20 -20 -20 -20 -20 -20 -20 -20 -20 -20 -20 -20 -20 -20 -20 -20 -20 -20 -20 -20 -20 -20 -20 -20 -20 -9 -20 -20 -20 -17 -20 -20
-20 -20 -20 -20 -20 -20 -20 -20 -20 -20 -20 -20 -20 -20 -20 -20 -20 -20 -20 -20 -20 -20 -20 -20 -20 -20 -20 -7 -20 -20 -20 -20 -20 -20 -20 -20 -19 -9 -18 -20 -20 -20 -20 -20
-20 -20 -20 -20 -20 -20 -20 -20 -20 -20 -9 -20 -20 -20 -20 -20 -20 -20 -20 -20 -20 -20 -20 -20 -20 -19 -0 -1 -20 17 19 -20 -20 -20 -20 -18 -12 -20 -20 -20 -20 -20 -20 -20
-20 -20 -20 -20 -20 -20 -20 -20 -18 -20 -20 -20 -20 -20 -20 -20 -20 -20 -20 -20 -20 -18 -0 2 2 4 10 9 11 8 -20 -20 -20 -19 -4 -19 3 -2 -8 -20 -19 -9 -20 -20
-20 -20 -20 -20 -20 -20 -20 -20 -20 -20 -20 -20 -20 -20 -20 -20 -20 -20 -20 -20 -20 -20 -4 -16 3 5 7 8 13 6 11 -20 -20 -20 -1 -5 9 26 15 -13 -7 -17 -20 -20
-20 -20 -20 -20 -20 -20 -20 -20 -20 -20 -20 -20 -20 -20 -20 -20 -20 -20 -8 -12 -20 -14 -9 -4 3 1 17 18 20 5 -1 -20 -8 -9 -11 -16 -20 -16 -17 -10 -10 -4 9 -0
-20 -20 -20 -20 -20 -20 -20 -20 -20 -20 -20 -20 -20 -20 -20 -20 -20 -9 -4 -18 -1 -14 2 -4 -2 -8 -0 -19 0 -18 -15 -20 -4 -5 -20 -12 -5 2 4 -5 -20 -17 14 13
-20 -20 -20 -20 -20 -20 -20 -20 -20 -20 -20 -20 -20 -20 -20 -20 -20 -20 -17 7 -4 -20 -18 -4 -5 -9 -1 -1 -20 -11 4 17 -6 -4 -4 4 4 7 23 15 9 5 -1 9
-20 -20 -17 -20 -20 -20 -20 -20 -20 -20 -20 -20 -20 -20 -20 -20 -20 -13 -0 3 6 -4 1 -18 -8 -4 -4 -18 -4 8 5 -4 -6 -1 -0 1 6 13 9 8 9 8 5 3
-20 -20 -9 -20 -20 -20 -20 -20 -20 -20 -20 -20 -20 -20 -20 -20 -20 -20 -20 3 8 5 2 -1 -7 -5 -6 -2 -1 -6 -10 11 4 1 -20 5 7 4 5 7 8 10 9 10
-20 -20 -20 -20 -20 -20 -20 -20 -20 -20 -20 -20 -20 -20 -20 -20 -20 -20 -20 -20 2 -1 1 2 -20 -1 -20 -19 -13 -2 -1 -9 -4 -5 -20 -3 6 3 5 7 6 8 10 13
-20 -20 -20 -20 -20 -20 -20 -20 -20 -20 -20 -20 -20 -20 -20 -20 -20 -20 -20 -20 -18 -18 -9 -4 -17 -20 -20 -3 -3 1 0 -1 -2 0 -20 -20 0 3 5 6 4 6 9 6
-20 -20 -20 -20 -20 -20 -20 -20 -20 -20 -20 -20 -20 -20 -20 -20 -20 -20 -20 -20 -20 -20 -20 -0 -20 -20 -20 -20 -10 2 7 3 -0 -2 -8 3 -19 -2 4 5 4 5 -0 1
-20 -20 -20 -20 -20 -20 -20 -20 -20 -20 -20 -20 -20 -20 -20 -20 -20 -20 -20 -20 -20 -20 -20 -20 3 -9 1 1 -2 9 10 13 4 -0 2 -17 -17 2 -1 -8 1 2 6 6
-20 -20 -20 -20 -20 -20 -20 -20 -20 -20 -20 -20 -20 -20 -20 -20 -20 -20 -20 -20 -20 -20 -20 -20 -20 3 -0 1 5 4 20 14 9 5 2 4 6 1 -20 3 -0 5 5 -20
-20 -20 -20 -20 -20 -20 -20 -20 -20 -20 -20 -20 -20 -20 -20 -20 -20 -20 -20 -20 -20 -20 -20 -20 -20 -8 -6 -14 2 9 12 11 11 8 7 6 3 5 2 0 4 -19 -20 -20
-20 -20 -20 -20 -20 -20 -20 -20 -20 -20 -20 -20 -20 -20 -20 -20 -20 -20 -20 -20 -20 -20 -20 -20 -20 -20 -3 6 9 10 7 12 11 8 7 9 7 7 6 4 1 1 -2 -15
-20 -20 -20 -20 -20 -20 -20 -20 2 18 3 -20 -20 -20 -20 -20 -20 -20 -20 -20 -20 -20 -20 -20 -20 -20 -19 9 9 10 10 8 11 10 8 -3 9 7 7 7 -1 -15 -19 -2
-20 -20 -20 -20 -7 -0 0 -3 11 19 18 8 13 7 -2 -17 -20 -20 -20 -20 -20 -20 -20 -20 -20 -20 5 12 10 11 11 11 10 6 9 6 7 5 5 4 -4 -17 -7 -6
-20 -20 -18 -4 5 3 4 4 9 10 -4 3 4 -0 -16 -20 -20 -20 -20 -20 -20 -20 -20 -20 -20 -4 5 6 12 10 11 8 11 8 6 8 5 4 3 3 3 2 3 4
-20 -20 -17 -9 -20 -20 -15 -20 -19 -2 -11 -2 -20 -20 -20 -20 -20 -20 -20 -20 -20 -20 -20 -20 -18 -16 -7 3 6 11 10 12 5 4 6 7 6 5 3 3 3 3 1 -14

GFSNGP_prec_radar_222.txt.gz
Reflectivity
4 16 20 -18 -20 -20 -20 -20 -20 -20 -20 -16 3 21 12 -20 -20 -20 -20 -20 -20 -20 -20 -20 -20 -20 -20 -20 -20 -20 -20 -20 -20 -20 -20 -20 -20 -20 -20 -20 -20 -20 -20 -19
-7 -20 7 19 -20 -20 -20 -20 -20 -20 -20 -20 3 1 -20 -20 -20 -20 -20 -20 -20 -20 -20 -20 -20 -20 -20 -20 -20 -20 -20 -20 -20 -20 -20 -20 -20 -20 -20 -20 -20 -20 -20 -20
30 10 25 -0 -20 -20 -20 -20 -20 -20 -20 3 -20 -20 -20 -20 -20 -20 -20 -20 -20 -20 -20 -20 -20 -20 -20 -20 -20 -20 -20 -20 -20 -20 -20 -19 -20 -20 -20 -20 -20 -5 -5 -20
30 23 13 -20 -20 -20 -20 -20 -20 -20 -20 -20 -20 -20 -20 -20 -20 -20 -20 -20 -20 -20 -20 -20 -20 -20 -20 -20 -20 -20 -20 -20 -20 -20 -20 -20 -20 15 -15 -20 -20 -20 -20 27
4 0 -20 -20 -20 -20 -20 -20 -20 -20 -20 -20 -20 -20 -20 -20 -20 -20 -20 -20 -20 -20 -20 -20 -20 -20 -20 -20 -20 -20 -20 -20 -20 -20 -20 -20 -20 -20 -19 -20 -19 -20 19 2
13 5 -19 -20 -20 -20 -20 -20 -20 -20 -20 -20 -20 -20 -20 -20 -20 -20 -20 -20 -20 -20 -20 -20 -20 -20 -20 -20 -20 -20 -20 -20 -20 -20 -20 -20 14 18 -15 32 27 -20 -20 -20
2 -1 -19 -20 -20 -20 -20 -20 -20 -20 -20 -20 -20 -20 -20 -20 -20 -20 -20 -20 -20 -20 -20 -20 -20 -20 -20 -20 -20 -20 -20 -20 -12 -20 -20 -15 -20 5 -20 -20 -20 -20 -20 -20
11 6 3 -20 -20 -20 -20 -20 -20 -20 -20 -20 -20 -20 -20 -20 -20 -20 -20 -20 -20 -20 -20 -20 -20 -20 -20 -20 -20 -20 -5 1 -20 -0 -20 8 -9 -19 -20 -20 -19 -20 8 -2
1 4 -6 -20 -20 -20 -20 -20 -20 -20 -20 -20 -20 -20 -20 -20 -20 -20 -20 -20 -20 -20 -20 -20 -20 -20 -20 -20 -20 2 -15 -1 5 3 -18 -19 -20 -19 -20 -20 -20 1 -11 -19
-6 -20 -20 -20 -20 -20 -20 -20 -20 -20 -20 -20 -20 -20 -20 -20 -20 -20 -20 -20 -20 -20 -20 -20 -20 -20 -20 -6 1 0 -13 -13 -18 -18 -8 -20 -4 -12 -20 -20 -19 -18 -12 -9
-20 -20 -20 -20 -20 -20 -20 -20 -20 -20 -20 -20 -20 -20 -20 -20 -20 -20 -20 -20 -20 -20 -20 -20 -20 -20 -20 -8 -5 -9 -9 -19 -20 -20 -17 2 2 -10 -14 -20 -6 -4 -6 -1
-20 -20 -20 -20 -20 -20 -20 -20 -20 -20 -20 -20 -20 -20 -20 -20 -20 -20 -20 -20 -20 -20 -20 -20 -20 -20 -20 -18 6 -4 -11 -13 -2 -2 -20 -2 -6 -20 5 -5 9 -3 -17 22
-20 -20 -20 -20 -20 -20 -20 -20 -20 -20 -20 -20 -20 -20 -20 -20 -20 -20 -20 -20 -20 -20 -20 -4 -13 -10 -20 -19 11 -0 -20 -13 -10 3 -20 -20 -20 -13 -20 -4 -20 -20 -20 -3
-20 -20 -20 -20 -20 -20 -20 -20 -20 -20 -20 -20 -20 -20 -20 -20 -20 -20 -20 -20 -20 -20 -20 -20 -20 -20 -20 -20 -18 -9 -3 21 3 -12 -20 -20 -20 -20 -19 -20 -4 -9 -20 -20
-20 -20 -20 -20 -20 -20 -20 -20 -20 -20 -20 -20 -20 -20 -20 -20 -20 -20 -20 -20 -20 -20 -20 -20 -20 -20 -20 -20 -20 -20 -20 -14 -14 -7 -19 -8 -20 -20 6 -17 -18 -20 -20 -20
-20 -20 -20 -20 -20 -20 -20 -20 -20 -20 -20 -20 -20 -20 -20 -20 -20 -20 -20 -20 -20 -20 -20 -20 -20 -20 -20 -20 -20 -20 -20 -12 5 -8 -7 -11 -20 -13 -20 1 -19 -5 -7 -16
-20 -20 -20 -20 -20 -20 -20 -20 -20 -20 -20 -20 -20 -20 -20 -20 -20 -20 -20 -20 -20 -20 -20 -20 -20 -20 -20 -20 -20 -20 -20 -20 -6 -13 0 -12 -8 -11 -20 -14 1 -1 -20 -20
-20 -20 -20 -20 -20 -20 -20 -20 -20 -20 -20 -20 -20 -20 -20 -20 -20 -20 -20 -20 -20 -20 -20 -20 -20 -20 -20 -20 -20 -20 -20 -12 -14 -2 -5 0 -7 -6 -10 -3 4 -14 -20 -20
-20 -20 -20 -20 -20 -20 -20 -20 -20 -20 -20 -20 -20 -20 -20 -20 -20 -20 -20 -20 -20 -20 -20 -20 -20 -20 -20 -20 -20 -20 -20 -20 -17 0 -12 5 -8 -20 -11 -5 2 -19 -20 -20
-20 -20 -20 -20 -20 -20 -20 -20 -20 -20 -20 -20 -20 -20 -20 -20 -20 -20 -20 -20 -20 -20 -20 -20 -20 -20 -20 -20 -20 -20 -20 -20 -16 0 4 -12 -0 -11 -19 -20 -10 -15 -20 -17
-20 -20 -20 -20 -20 -20 -20 -20 -20 -20 -20 -20 -20 -20 -20 -20 -20 -20 -20 -20 -20 -20 -20 -20 -20 -20 -20 -20 -20 -20 -20 -20 -16 -3 -2 9 5 -20 -9 -14 -10 -15 -14 -2
-20 -20 -20 -20 -20 -20 -20 -20 -20 -20 -20 -20 -20 -20 -20 -20 -20 -20 -20 -20 -20 -20 -19 -20 -20 -20 -20 -20 -20 -20 -20 -20 -5 -7 -0 8 9 8 -12 -18 -13 -20 -13 -3
-20 -20 -20 -20 -20 -20 -20 -20 -20 -20 -20 -9 -16 -15 -12 -14 -17 8 3 -3 13 15 -1 -20 -20 -20 -20 -20 -20 -20 -14 -16 -20 -12 -1 9 7 8 -11 -20 -20 -20 -12 -8
-20 -20 -20 -20 -20 -20 -20 -19 1 -20 1 4 3 2 2 7 7 -4 15 17 -5 -17 -20 -20 -20 -20 -20 -20 -20 -6 -20 -18 -5 -20 -10 7 7 6 -5 -20 -5 3 -11 -11
-20 -20 -20 -20 -16 -6 -20 -20 -20 -10 -20 -20 -9 -6 5 3 3 -1 -20 -20 -10 -7 -20 -20 -20 -20 -18 -8 -2 -4 -5 -16 -20 -9 -20 -0 8 6 5 -20 -13 9 0 -13
-20 -20 -20 -20 -20 -20 -20 -20 -19 -20 -3 5 -19 9 12 8 4 6 7 1 -13 -20 -20 -12 -5 -3 -20 -20 4 1 -14 -20 -20 -20 -7 5 11 3 10 -6 1 12 4 -3
-20 -20 -20 -20 -19 -20 -20 -20 -20 -5 2 7 7 -2 -14 -20 -20 -9 -9 5 7 6 0 -14 -20 -20 -16 -19 -20 -12 3 -17 -11 -4 -18 -9 2 11 12 11 10 15 6 9

GFSNGP_prec_radar_228.txt.gz
Reflectivity
-20 -20 -20 -20 -20 -20 -20 -20 -20 -20 -20 -20 -20 -20 -20 -20 -20 -20 -20 -20 -20 -20 -20 -20 -20 -20 -20 -20 -20 -20 -20 -20 -20 -20 -20 -20 -20 -20 -20 -20 -20 -20 -20 -20
-9 -13 -20 -20 -20 -20 -20 -20 -20 -4 -20 -20 -12 6 -20 -20 -20 -20 -20 -20 -20 -20 -20 -20 -20 -20 -20 -20 -20 -20 -20 -20 -20 -20 -20 -20 -20 -20 -20 -20 -20 -20 -20 -20
11 -12 -6 -3 -20 -20 -19 -1 9 10 -15 17 18 8 -19 -20 -20 -20 -20 -20 -20 -20 -20 -20 -20 -20 -20 -20 -20 -20 -20 -20 -20 -20 -20 -20 -20 -20 -20 -20 -20 -20 -20 -20
25 30 17 -17 -20 -20 -6 16 21 27 25 15 2 6 -6 -17 -20 -20 -20 -20 -20 -20 -17 -3 -20 -20 -20 -20 -20 -20 -20 -20 -20 -20 -20 -20 -20 -20 -20 -20 -20 -20 -20 -20
21 20 5 -20 -20 -20 -20 -6 11 31 6 -8 6 18 28 3 -20 -20 -20 -5 9 12 16 -1 -20 -20 -20 -20 -20 -20 -20 -20 -20 -20 -20 -20 -20 -20 -20 -20 -20 -20 -20 -19
27 21 14 -20 -20 -20 -14 -11 -19 11 9 -16 -20 -20 -8 -3 -2 9 15 22 17 17 5 -18 -20 -20 -20 -20 -20 -20 -20 -20 -20 -20 -20 -20 -11 -8 -20 -20 -20 -18 -19 -20
17 20 -1 -20 -20 -20 -20 -20 -20 -2 -0 -20 -20 -20 -10 11 10 1 12 23 9 3 11 -8 -20 -20 -20 -20 -20 -20 -20 -20 -20 -20 -18 -17 -16 -20 -20 -7 2 -20 -15 -20
15 12 -16 -20 -20 -20 -20 -20 -20 -19 12 -6 -20 -20 -12 -18 2 11 8 11 -0 -9 -20 -20 -20 -20 -20 -20 -20 -20 -20 -20 -18 -20 -20 -15 -20 -20 -20 -18 -20 -20 -20 -20
10 -1 -14 -20 -20 -20 -20 -20 -20 -20 -4 11 4 4 4 -6 -3 -1 -18 -20 -20 -20 -20 -20 -20 -20 -20 -20 -20 -20 -20 -20 0 -2 -14 -20 -20 -20 -20 -20 -20 -20 -18 -9
-6 -18 -20 -20 -20 -20 -20 -20 -19 -20 -20 -19 -10 -4 -4 -20 -20 -20 -20 -20 -20 -20 -20 -20 -20 -20 -20 -20 -20 -20 -20 -20 6 -2 -2 -14 -19 -19 -18 -19 -10 -14 -16 -20
-20 -20 -20 -20 -20 -20 -20 -20 -19 -20 -20 -20 -20 -20 -20 -17 -20 -20 -20 -20 -20 -20 -20 -20 -20 -20 -20 -20 -20 -20 -20 -20 -20 -20 -20 -20 -20 3 -2 -20 1 3 -3 -18
-20 -6 -6 -20 -20 -20 -20 -20 -20 -20 -20 -20 -20 -20 -20 -20 -20 -20 -20 -20 -20 -20 -20 -20 -20 -20 -20 -20 -20 -20 -20 -20 -20 -20 -20 -16 -2 -2 9 0 6 -2 9 -5
-20 -20 -20 -20 -20 -20 -20 -20 -20 -20 -20 -20 -20 -20 -20 -20 -20 -20 -20 -20 -20 -20 -20 -20 -20 -20 -20 -20 -20 -20 -20 -20 -20 -20 -20 -20 -20 -20 -20 -20 -20 -20 -19 -18
-20 -20 -20 -20 -20 -20 -20 -20 -20 -20 -20 -20 -20 -20 -20 -20 -20 -20 -20 -20 -20 -20 -20 -20 -20 -20 -20 -20 -20 -20 -20 -20 -20 -20 -20 -20 -20 -20 -20 -20 -20 -20 -20 -20
-20 -20 -20 -20 -20 -20 -20 -20 -20 -20 -20 -20 -20 -20 -20 -20 -20 -20 -20 -20 -20 -20 -20 -20 -20 -20 -20 -20 -20 -20 -20 -20 -20 -20 -20 -20 -14 -20 -20 -1 3 -20 -20 -20
-11 -20 -20 -20 -20 -20 -20 -20 -20 -20 -20 -20 -20 -20 -20 -20 -20 -20 -20 -20 -20 -20 -20 -20 -20 -20 -20 -20 -20 -20 -20 -20 -20 -20 -20 -20 -20 -20 -20 -0 -9 -11 -20 -20
-20 -20 -20 -20 -20 -20 -20 -20 -20 -20 -20 -20 -20 -20 -20 -20 -20 -20 -20 -20 -20 -20 -20 -20 -20 -20 -20 -20 -20 -20 -20 -20 -20 -20 -20 -20 -20 -20 -20 -20 -20 -20 -20 -20
-20 -20 -20 -20 -20 -20 -20 -20 -20 -20 -20 -20 -20 -20 -20 -20 -20 -20 -20 -20 -20 -20 -20 -20 -20 -20 -20 -20 -20 -20 -20 -20 -20 -20 -20 -20 -20 -20 -20 -20 -5 -12 -20 -17
-20 -20 -20 -20 -20 -20 -20 -20 -20 -20 -20 -20 -20 -20 -20 -20 -20 -20 -20 -20 -20 -20 -20 -20 -20 -20 -20 -20 -20 -20 -20 -20 -20 -20 -20 -20 -20 -20 -20 -12 -2 -6 -20 -20
-20 -20 -20 -20 -20 -20 -20 -20 -20 -20 -20 -20 -20 -20 -20 -20 -20 -20 -20 -20 -20 -20 -20 -20 -20 -20 -20 -20 -20 -20 -20 -20 -20 -20 -20 -20 -20 -20 -20 -20 -12 -20 -20 -20
-20 -20 -20 -20 -20 -20 -20 -20 -20 -20 -20 -20 -20 -20 -20 -20 -20 -20 -20 -20 -20 -20 -20 -20 -20 -20 -20 -20 -20 -20 -20 -20 -20 -20 -20 -20 -20 -20 -20 -20 -20 -20 -3 -20
-20 -20 -20 -20 -20 -20 -20 -20 -20 -20 -20 -20 -20 -20 -20 -20 -20 -20 -20 -20 -20 -20 -20 -20 -20 -20 -20 -19 -20 -20 -20 -20 -20 -20 -20 -20 -20 -20 -20 -20 -13 -20 -18 -1
-20 -20 -20 -20 -20 -20 -20 -20 -20 -20 -20 -20 -20 -20 -20 -20 -20 -6 -19 -19 -20 -20 -20 -18 -6 4 -0 5 6 5 -15 -20 -20 -20 -20 -20 -20 -20 -20 -20 -20 -20 -16 -5
-20 -20 -20 -20 -20 -20 -20 -20 -20 -20 -20 -20 -20 -20 -20 -20 -20 -20 -20 -20 -20 -20 -20 -20 -18 -18 -17 -8 -5 -11 -11 -19 -20 -20 -20 -20 -20 -20 -20 -20 -20 -20 -18 -19
-20 -20 -20 -20 -20 -20 -20 -20 -20 -20 -20 -20 -20 -20 -20 -20 -20 -20 -20 -20 -20 -20 -20 -20 -20 -20 -20 -20 -20 -20 -20 -20 -20 -20 -20 -20 -20 -20 -20 -20 -20 -20 -1 2
-20 -20 -20 -20 -20 -20 -20 -20 -20 -20 -20 -20 -20 -20 -20 -20 -20 -20 -20 -20 -20 -20 -20 -20 -20 -20 -20 -20 -20 -20 -20 -20 -20 -20 -20 -20 -20 -20 -20 -20 -20 -20 -6 -15
-20 -20 -20 -20 -20 -20 -20 -20 -20 -20 -20 -20 -20 -20 -20 -20 -20 -20 -20 -20 -20 -20 -20 -20 -20 -20 -20 -20 -20 -20 -20 -20 -20 -20 -20 -20 -20 -20 -20 -20 -20 -20 -20 -20

GFSNGP_prec_radar_231.txt.gz
Reflectivity
-20 -20 -20 -20 -20 -20 -20 -20 -20 -20 -20 -20 -20 -20 -20 -20 -20 -20 -20 -20 -20 -20 -20 -20 -20 -20 -20 -20 -20 -20 -20 -20 -20 -20 -20 -20 -20 -20 -20 -20 -20 -20 -20 -20
-20 -20 -20 -20 -20 -20 -20 -20 -20 -20 -20 -20 -20 -20 -20 -20 -20 -20 -20 -20 -20 -20 -20 -20 -20 -15 -3 -20 -20 -20 -20 -20 -20 -20 -20 -20 -20 -20 -20 -20 -20 -20 -20 -20
-16 -11 10 4 -20 -20 -20 -20 -20 -20 -20 -20 -20 -20 -20 -20 -20 -20 -20 -20 -20 -20 -20 -19 -18 -4 -20 -20 -20 -20 -20 -20 -20 -20 -20 -20 -20 -20 -20 -20 -20 -20 -20 -20
12 -9 16 15 -20 -20 -15 -18 -20 -20 -20 -20 -20 -20 -20 -20 -20 -20 -20 -20 -20 -20 -14 -18 -10 -20 -20 -9 -19 -20 -20 -20 -20 -20 -20 -20 -20 -20 -20 -20 -20 -20 -20 -20
20 23 0 -20 -20 -20 -20 -20 -20 -20 -20 -20 -20 -20 -20 -20 -20 -20 -16 -3 -16 -20 -20 -18 -20 -19 10 0 -20 -20 -20 -20 -20 -20 -20 -20 -20 -20 -20 -20 -20 -20 -20 -20
23 16 -3 -20 -20 -20 -11 -19 -20 -20 -20 -20 -20 -20 -20 -20 -20 -20 -20 -20 -20 2 -1 -16 -3 7 -11 -20 -20 -20 -20 -20 -20 -20 -20 -20 -20 -20 -20 -20 -20 -20 -20 -20
21 14 -18 -20 -20 -20 3 -19 -20 -19 -11 -3 -18 -20 -20 -20 -20 -20 -20 -15 -20 -20 -14 13 9 -20 -20 -20 -20 -20 -20 -20 -20 -20 -20 -20 -20 -20 -20 -20 -20 -20 -20 -20
20 19 7 -20 -20 -20 -20 -20 -20 -12 -13 -20 -20 -20 -20 -20 -20 -20 -20 -15 -6 26 7 -20 -20 -20 -20 -20 -20 -20 -20 -20 -20 -20 -20 -18 -13 -20 -20 -20 -20 -20 -20 -20
20 17 -1 -20 -20 -20 -20 -20 -20 -20 -20 -20 -20 -20 -20 -20 -20 -19 -5 12 0 -11 -20 -20 -20 -20 -20 -20 -20 -20 -20 -20 -20 -20 -20 -20 -18 -19 -4 7 3 -5 -20 -20
13 -11 -12 -20 -20 -20 -20 -20 -20 -20 -20 -20 -20 -20 -20 -20 -20 -7 -1 -20 -20 -20 -20 -20 -20 -20 -20 -20 -20 -20 -20 -20 -20 -20 -20 -20 -20 -2 -20 -20 -20 -20 -20 -20
1 -18 -17 3 7 7 5 2 6 -1 -20 -20 -20 -20 -20 -20 -20 -20 -20 -20 -20 -20 -20 -20 -20 -20 -20 -20 -20 -20 -20 -20 -20 -20 -20 -20 -20 -20 -20 -20 -20 -20 -20 -20
-20 3 5 1 -1 -18 -20 -20 -20 -20 -20 -20 -20 -20 -20 -20 -20 -20 -20 -20 -20 -20 -20 -20 -20 -20 -20 -20 -20 -20 -20 -20 -20 -20 -20 -20 -20 -20 -20 -18 -20 -20 -20 -20
-9 -19 -20 -20 -20 -20 -20 -9 -8 -20 -20 -20 -20 -20 -20 -20 -20 -20 -20 -20 -20 -20 -20 -20 -20 -20 -20 -20 -20 -20 -20 -20 -20 -20 -20 -20 -20 -20 -20 -20 -20 -20 -18 -1
-20 -20 -20 -20 -20 -15 5 11 3 -15 -20 -20 -20 -20 -20 -20 -20 -20 -20 -20 -20 -20 -20 -20 -20 -20 -20 -20 -20 -20 -20 -20 -20 -20 -20 -20 -20 -20 -20 -20 -20 -19 -20 -20
-20 -20 -20 -20 -20 -14 -14 -15 -20 -16 -2 -17 -20 -20 -20 -20 -20 -20 -20 -20 -20 -20 -20 -20 -20 -20 -20 -20 -20 -20 -20 -20 -20 -20 -20 -20 -20 -20 -20 -20 -20 -20 -15 -20
7 1 0 1 -20 -20 -20 -20 -8 -3 -20 -20 -20 -20 -20 -20 -20 -20 -20 -20 -20 -20 -20 -20 -20 -20 -20 -20 -20 -20 -20 -20 -20 -20 -20 -20 -20 -20 -20 -20 -20 -20 -18 -20
-20 -20 -20 -20 -17 -19 -3 -2 -17 -20 -20 -20 -20 -20 -20 -20 -20 -20 -20 -20 -20 -20 -20 -20 -20 -20 -20 -20 -20 -20 -20 -20 -20 -20 -20 -20 -20 -20 -20 -20 -20 -20 -20 -13
-20 -20 -9 -14 -19 -20 -20 -20 -20 -20 -20 -20 -20 -20 -20 -20 -20 -20 -20 -20 -20 -20 -20 -20 -20 -20 -20 -20 -20 -20 -20 -20 -20 -20 -20 -20 -20 -20 -20 -20 -20 -20 -20 -20
-20 -20 -20 -20 -20 -20 -20 -20 -20 -20 -20 -20 -20 -20 -20 -20 -20 -20 -20 -20 -20 -20 -20 -20 -20 -20 -20 -20 -20 -20 -20 -20 -20 -20 -20 -20 -20 -20 -20 -20 -20 -20 -20 -20
-12 -15 -18 -20 -20 -20 -20 -20 -20 -20 -20 -20 -20 -20 -20 -20 -20 -20 -20 -20 -20 -20 -20 -20 -20 -20 -20 -20 -20 -20 -20 -20 -20 -20 -20 -20 -20 -20 -20 -20 -20 -20 -20 -20
-20 -20 -20 -20 -20 -20 -20 -20 -20 -20 -20 -20 -20 -20 -20 -20 -20 -20 -20 -20 -20 -20 -20 -20 -20 -20 -20 -20 -20 -20 -20 -20 -20 -20 -20 -20 -20 -20 -20 -20 -20 -20 -20 -20
-20 -20 -20 -20 -20 -20 -20 -20 -20 -20 -20 -20 -20 -20 -20 -20 -20 -20 -20 -20 -20 -20 -20 -20 -20 -20 -20 -20 -20 -20 -20 -19 -19 -19 -18 -20 -20 -20 -20 -20 -20 -20 -20 -20
-20 -20 -20 -20 -20 -20 -20 -20 -20 -20 -20 -20 -20 -20 -20 -20 -20 -20 -20 -20 -20 -20 -20 -20 -20 -20 -20 -20 -20 -20 -16 -17 -19 -19 -20 -20 -20 -20 -20 -20 -20 -20 -20 -20
-20 -20 -20 -20 -20 -20 -20 -20 -20 -20 -20 -20 -20 -20 -20 -20 -20 -20 -20 -20 -20 -20 -20 -20 -20 -20 -20 -20 -20 -20 -20 -20 -20 -20 -20 -20 -20 -20 -20 -20 -20 -20 -20 -20
-20 -20 -20 -20 -20 -20 -20 -20 -20 -20 -20 -20 -20 -20 -20 -20 -20 -20 -20 -20 -20 -20 -20 -20 -20 -20 -20 -20 -20 -20 -20 -20 -20 -20 -20 -20 -20 -20 -20 -20 -20 -20 -20 -20
-20 -20 -20 -20 -20 -20 -20 -20 -20 -20 -20 -20 -20 -20 -20 -20 -20 -20 -20 -20 -20 -20 -20 -20 -20 -20 -20 -20 -20 -20 -20 -20 -20 -20 -20 -20 -20 -20 -20 -20 -20 -20 -20 -20
-20 -20 -20 -20 -20 -20 -20 -20 -20 -20 -20 -20 -20 -20 -20 -20 -20 -20 -20 -20 -20 -20 -20 -20 -20 -20 -20 -20 -20 -20 -20 -20 -20 -20 -20 -20 -20 -20 -20 -20 -20 -20 -20 -20

GFSNGP_prec_radar_237.txt.gz
Reflectivity
7 -19 -20 -20 -20 -20 -13 6 6 -19 -20 -20 -20 -20 -20 -20 -20 -20 -20 -20 -20 -20 -20 -20 -20 -20 -20 -20 -20 -20 -20 -20 -20 -20 -20 -20 -20 -9 -20 -20 -20 -20 -20 -20
-20 4 8 -20 -20 -20 -20 -20 -20 -20 -20 -20 -15 -20 -20 -20 -20 -20 -20 -20 -20 -20 -20 -20 -20 -20 -20 -20 -20 -20 -20 -20 -20 -20 -20 -4 1 -20 -20 -20 -20 -20 -20 -20
-19 -9 19 18 -17 -20 -20 -20 -20 -20 -19 -15 -20 -20 -20 -20 -20 -20 -20 -20 -20 -20 -20 -20 -20 -20 -20 -20 -20 -20 -20 -20 -20 -19 -19 10 -12 -20 -20 -20 -20 -20 -20 -20
2 11 24 25 -16 -20 -20 -20 -20 -20 -20 -20 -20 -20 -20 -20 -20 -20 -20 -20 -20 -20 -20 -20 -20 -20 -20 -20 -20 -20 -20 -20 -20 -20 6 -13 -20 -20 -20 -20 -20 -20 -20 -20
22 33 3 -20 -20 -20 -20 -20 -20 -20 -20 -20 -20 -20 -20 -20 -20 -20 -20 -20 -20 -20 -20 -20 -20 -20 -20 -20 -20 -20 -20 -20 -4 12 -2 -20 -20 -20 -20 -20 -20 -20 -6 1
36 29 16 -20 -20 1 9 -19 -19 -19 -20 -20 -20 -20 -20 5 -3 -20 -20 -20 -20 -20 -20 -20 -20 -20 -10 -19 -20 -20 -20 5 1 -19 -20 -20 -20 -20 -20 -20 -20 -20 -20 -20
28 31 22 -20 -20 -20 -15 -12 7 25 -5 -20 -20 -20 -17 -20 -20 -20 -20 -20 -20 -20 -10 -19 -20 -20 -18 -18 -20 -20 5 12 -14 -20 -20 -20 -20 -20 -20 -20 -20 -20 -20 -20
31 27 7 -20 -20 -20 -20 -20 -5 1 15 -11 -20 -20 -20 -20 -20 -20 -20 -20 -20 -20 -20 -20 -20 -20 -20 -20 -16 11 13 -17 -20 -20 -20 -20 -20 -20 -20 -20 -20 -20 -20 -15
26 21 -17 -20 -20 -20 -20 -20 -20 -20 -20 -20 -12 -20 -20 -20 -20 -20 -20 -20 -20 -20 -20 -20 -20 -19 -20 -20 -9 17 -18 -20 -20 -20 -20 -20 -20 -20 -20 -20 -20 -20 -20 -20
14 7 -4 -11 14 -17 -20 -20 -20 -20 -20 -1 -0 1 8 -10 -20 -20 -20 -20 -20 -20 -20 -20 -20 -20 -14 1 14 -20 -20 -20 -20 -20 -20 -20 -20 -20 -20 -20 -20 -20 -20 -20
19 3 -11 21 11 -20 -20 -20 -20 -20 -20 -20 2 4 -16 -7 -20 -20 -20 -20 -18 -20 -20 -20 -20 -20 -2 7 -20 -20 -20 -20 -20 -20 -20 -20 -20 -20 -20 -20 -20 -20 -20 -20
-17 -1 11 12 2 -6 -20 -20 -20 -20 -20 -20 -20 -19 -20 -20 -20 -20 -20 -20 -20 -20 -20 -20 -17 1 -13 -20 -20 -20 -20 -20 -20 -20 -20 -20 -20 -20 -20 -20 -20 -20 -20 -20
26 29 11 -7 -20 -20 -20 -20 -20 -20 -13 -20 -20 -20 -20 -20 -20 -20 -20 -20 -20 -20 -19 -5 -20 -20 -20 -20 -20 -20 -20 -20 -20 -20 -20 -20 -20 -20 -20 -20 -20 -20 -20 -20
-5 -3 3 9 -2 -20 -20 -20 -20 -20 -20 -20 -19 -19 -11 -20 -20 -20 -20 -20 -20 -14 -8 -4 -0 -2 -15 -20 -20 -20 -20 -20 -20 -20 -20 -20 -20 -20 -20 -20 -20 -20 -20 -20
-20 -0 -10 -3 3 -16 -20 -20 -20 -20 -20 -20 -20 -20 -20 -20 -20 -20 -20 -20 -20 -13 -7 -2 -14 -20 -20 -20 -20 -20 -20 -20 -20 -20 -20 -20 -20 -20 -20 -20 -20 -20 -20 -20
-16 -20 -20 -20 -20 -20 -20 -20 -20 -20 -20 -20 -18 -17 -11 -13 -19 -19 -19 -3 -0 -9 -20 -20 -20 -20 -20 -20 -20 -20 -20 -20 -20 -20 -20 -20 -20 -20 -20 -20 -20 -20 -20 -20
-20 -20 -20 -20 -20 -20 -20 -20 -20 -20 -20 -20 -20 -16 -14 -20 -5 6 6 -9 -20 -20 -20 -20 -20 -20 -20 -20 -20 -20 -20 -20 -20 -20 -20 -20 -20 -20 -20 -20 -20 -20 -20 -20
-20 -20 -20 -20 -20 -20 -20 -20 -20 -20 -20 -3 2 -4 3 1 -7 -19 -20 -18 -20 -20 -20 -20 -20 -20 -20 -20 -20 -20 -20 -20 -20 -20 -20 -20 -20 -20 -20 -20 -20 -20 -20 -20
-20 -20 -20 -20 -20 -2 6 3 0 5 -5 -0 6 3 -4 -20 -20 -19 -20 -20 -20 -20 -20 -20 -20 -20 -20 -20 -20 -20 -20 -20 -20 -20 -20 -20 -20 -20 -20 -20 -20 -20 -20 -20
-20 -20 -20 -20 -20 -19 -19 -19 -16 -19 -18 -18 -19 -20 -20 -20 -19 -10 -18 -20 -20 -20 -20 -20 -20 -20 -20 -20 -20 -20 -20 -20 -20 -20 -20 -20 -20 -20 -20 -20 -20 -20 -20 -20
-1 4 -13 -20 -20 -20 -20 -20 -20 -20 -20 -20 -20 -20 -20 -20 -20 -20 -20 -20 -20 -20 -20 -20 -20 -20 -20 -20 -20 -20 -20 -20 -20 -20 -20 -20 -20 -20 -20 -20 -20 -20 -20 -20
-20 -20 -20 -20 -20 -20 -20 -20 -20 -20 -20 -20 -20 -20 -20 -20 -20 -20 -20 -20 -20 -20 -20 -20 -20 -20 -20 -20 -20 -20 -20 -20 -20 -20 -20 -20 -20 -13 -20 -20 -20 -20 -20 -20
-20 -20 -20 -20 -20 -20 -20 -20 -20 -20 -20 -20 -20 -20 -20 -20 -20 -20 -20 -20 -20 -20 -20 -20 -20 -20 -16 -20 -20 -20 -20 -20 -20 -20 -20 2 2 2 2 -9 -20 -20 -20 -20
-20 -20 -20 -20 -20 -20 -20 -20 -20 -20 -20 -20 -20 -20 -20 -20 -20 -20 -20 1 -20 -20 -20 -20 -20 -20 -20 -20 -20 -20 -20 -19 -18 -18 -18 -18 -6 -18 -20 -20 -20 -20 -20 -20
-20 -20 -20 -20 -20 -20 -20 -20 -20 -20 -20 -20 -20 -20 -20 -20 -20 -20 -20 -20 -20 -20 -20 -20 -20 -20 -20 -20 -20 -20 -20 -20 -20 -20 -20 -20 -20 -20 -20 -20 -20 -20 -20 -20
-20 -20 -20 -20 -20 -20 -20 -20 -20 -20 -20 -20 -20 -20 -20 -20 -20 -20 -20 -20 -20 -20 -20 -20 -20 -20 -20 -20 -20 -20 -20 -20 -20 -20 -20 -20 -20 -20 -20 -20 -20 -20 -16 -17
-20 -20 -20 -20 -20 -20 -20 -20 -20 -20 -20 -20 -20 -20 -20 -20 -20 -20 -20 -20 -20 -20 -20 -20 -20 -20 -20 -20 -20 -20 -20 -20 -20 -20 -20 -20 -20 -20 -20 -20 -20 -20 -20 -20